map of JUB home
JUB - Airport
Location
City:  Juba, Central Equatoria, South Sudan
Near (Alt.):Djouba
Name:Juba International Airport
ICAO:HSSJ
IATA:JUB

Details
Type:Airport (Aerodrome, Airfield)
Use:International (customs port of entry)
Latitude:452'19"N (4.872006)
Longitude:3136'04"E (31.601117)
Datum:WGS 1984
Elevation:1513 ft (461 m)
Variation:2.46E (WMM2015 magnetic declination)
0.08 annual change
Runways:1
Longest:7874 × 148 ft (2400 × 45 m), paved

Time
Time Zone:UTC+3
Local Time:

Weather
TAF:HSSJ 160500Z 1606/1712 09005KT 9999 FEW020 SCT120
BECMG 1609/1612 12005KT 9999 SCT040 SCT140
BECMG 1612/1615 16008G18KT 6000 -TSRA FEW045CB BKN090
BECMG 1615/1618 VRB03KT 8000 SCT030 BKN090
TEMPO 1618/1624 18008G18KT 4000 TSRA FEW030CB BKN090

Related Locations
Nearby:
Farthest:NHV: 11824 mi / 19028 km
Nuku Hiva, Marquesas Islands, PF

Find:

   beyond  
but within

Other Information
Maps:
NOTAMs:
Links:
Sources:

  
  • flag of South Sudan
  

Sectional Chart

Flight Planning
at skyvector.com

Satellite Image

Google Maps Satellite view

 

Copyright © 2004-2018 Karl L. Swartz. All rights reserved.
The Great Circle Mapper name and logo are trademarks of the Great Circle Mapper.
All other trademarks mentioned herein belong to their respective owners.
Please see credits for attibutions and further copyright information.

  Follow gcmap on Facebook Follow gcmap on Twitter Follow gcmap on Google+ GCmap on LinkedIn

hCard Microformat

Geo Microformat